sat.trackr.live / text

‹ back to catalog

STARLINK-5288

NORAD 55307 · 2023-010AQ

PAYLOAD ACTIVE UNKNOWN

§ Identity

Operator
Country
US
Launch date
2023-01-19
Launch site
AFWTR
Launch vehicle
Mass (kg)
RCS (m²)

Purposes: comms

External: N2YO · Heavens-Above · Gunter

§ Orbital elements

Epoch: 2026-09-20T22:00:03.000096Z

Period
95.60 min
Inclination
69.9999°
Eccentricity
0.0002847
Mean motion
15.06274718 rev/d
Perigee alt
545.6 km
Apogee alt
549.6 km
Semi-major
6,925.7 km
B*
3.9363e-3
RAAN
232.3040°
Arg perigee
314.5685°
Mean anomaly
37.3811°
Rev number
571

§ Raw data

STARLINK-52881 55307U 23010AQ  26263.91670139  .00058299  00000+0  39363-2 0  99992 55307  69.9999 232.3040 0002847 314.5685  37.3811 15.06274718  5717

JSON: /api/v1/satellites/55307 · /tle

For live sub-satellite position, see the globe view (requires WebGL).

§ Visibility from observer

Set your observer location to see the next 7 days of passes ≥ 10°. The values pass through the URL so the page stays shareable.

No JS? Fill the form by hand. The geolocation button needs JavaScript.